Location: Helsinki
(60.1699°N, 24.9384°E)
Time: 12:22:38
(UTC+02:00)

Transit 2A Rocket - Pass Details

Date: 23 September 2023
Orbit: 593 x 903 km, 66.7° (Epoch: 06 December)

Event Time Altitude Azimuth Distance (km) Brightness Sun altitude
Rises 16:57:08 0° 209° (SSW) 3,309 9.3 16.0°
Reaches altitude 10° 16:59:42 10° 205° (SSW) 2,333 8.6 15.7°
Maximum altitude 17:04:50 52° 130° (SE) 914 5.5 15.2°
Drops below altitude 10° 17:09:34 10° 55° (NE) 2,144 6.8 14.6°
Sets 17:11:50 0° 51° (NE) 3,018 7.5 14.4°
